Regional Weather Roundup
Issued by NWS Sterling, VA

Home | Current Version | Previous Version | Text Only | Print | Product List | Glossary Off
Versions: 1 2 3 4 5 6 7 8 9 10 11 12 13 14 15 16 17 18 19 20 21 22 23 24 25 26 27

000
ASUS41 KLWX 181910
RWRLWX

REGIONAL WEATHER ROUNDUP
NATIONAL WEATHER SERVICE BALTIMORE MD/WASHINGTON DC
200 PM EST WED JAN 18 2017

Note: "FAIR" indicates few or no clouds below 12,000 feet
with no significant weather and/or obstructions to visibility.
 TC=TEMPERATURE CELSIUS

 * =Non NWS site. Station does not report precipitation (e.g. rain,
    snow, etc.), thunder, or fog.

DCZ001-MDZ009-015-VAZ040>042-051-053>054-182000-
WASHINGTON METRO

CITY           SKY/WX    TMP DP  RH WIND       PRES   REMARKS
WASHINGTON NAT PTSUNNY   58  40  51 NW18G28   29.95R
DULLES         PTSUNNY   54  37  52 NW17G26   29.96R
ANDREWS AFB    CLOUDY    56  40  54 NW15      29.93R
FT BELVOIR     CLOUDY    57  38  48 NW20G25   29.95R
QUANTICO       PTSUNNY   61  40  45 N13G26    29.95S
LEESBURG*      CLOUDY    55  43  62 NW20      29.97R
MANASSAS*      PTSUNNY  N/A N/A N/A NW12G23   29.96S
GAITHERSBURG*  CLOUDY    54  37  54 NW21G35   29.98S

$$

MDZ006>007-011-014-182000-
BALTIMORE METRO

CITY           SKY/WX    TMP DP  RH WIND       PRES   REMARKS
BWI AIRPORT    CLOUDY    55  42  61 NW21G28   29.93S
MD SCIENCE CTR   N/A     56  39  53 MISG      29.94S
MARTIN STATE   PTSUNNY   54  48  82 NW8       29.94R
ANNAPOLIS      PTSUNNY   55  41  59 NW10      29.93R
FORT MEADE*    CLOUDY    54  41  62 NW14G23   29.96S

$$

MDZ012-015-019>023-182000-
MARYLAND EASTERN SHORE

CITY           SKY/WX    TMP DP  RH WIND       PRES   REMARKS
OCEAN CITY     CLOUDY    50  45  83 NW13      29.92R
SALISBURY      CLOUDY    53  45  74 NW10      29.92R
BAY BRIDGE AP* PTSUNNY   52  41  66 NW12      29.93S
CAMBRIDGE*     MOSUNNY   54  43  66 N10G17    29.92S
EASTON*        MOSUNNY   55  43  62 NW18G26   29.96R

$$

MDZ017>025-182000-
SOUTHERN MARYLAND

CITY           SKY/WX    TMP DP  RH WIND       PRES   REMARKS
PATUXENT RIVER PTSUNNY   54  45  71 NE7       29.92S
ST INIGOES     CLOUDY    52  47  83 S5        29.92R
LEONARDTOWN*   MOSUNNY   55  37  50 N5        29.94R

$$

MDZ003>005-182000-
NORTH CENTRAL MARYLAND

CITY           SKY/WX    TMP DP  RH WIND       PRES   REMARKS
FREDERICK*     PTSUNNY   52  43  71 NW13G21   29.99R
HAGERSTOWN APT CLOUDY    51  37  58 NW20      29.96R
WESTMINSTER*   PTSUNNY   48  39  71 NW12G17   29.95R

$$

MDZ501>502-182000-
WESTERN MARYLAND

CITY           SKY/WX    TMP DP  RH WIND       PRES   REMARKS
OAKLAND*       FOG       32  32 100 W12G23    30.01R VSB<1/4 WCI  23
CUMBERLAND*    CLOUDY    46  34  61 W15G29    30.07R

$$

VAZ025>031-182000-
SHENANDOAH VALLEY

CITY           SKY/WX    TMP DP  RH WIND       PRES   REMARKS
WINCHESTER*    CLOUDY    50  36  57 NW14G28   29.97S
FRONT ROYAL*   CLEAR     54  36  50 NW9G18    29.96S
LURAY*         MOCLDY    54  37  54 NW5       29.98R
NEW MARKET*    MOCLDY    55  33  43 W7        29.98S
STAUNTON*      MOSUNNY   54  34  47 W16       30.00S
WAYNESBORO*    PTCLDY    54  32  44 W8        29.98S

$$

WVZ021-048>050-054>055-182000-
EASTERN WEST VIRGINIA PANHANDLE

CITY           SKY/WX    TMP DP  RH WIND       PRES   REMARKS
MARTINSBURG    CLOUDY    52  36  54 NW10G25   29.97R
PETERSBURG*    PTSUNNY   53  37  55 W20G26    30.02S

$$

VAZ036>039-050-182000-
CENTRAL FOOTHILLS

CITY           SKY/WX    TMP DP  RH WIND       PRES   REMARKS
CHARLOTTESVILL MOSUNNY   60  34  37 W12G20    29.96S
CULPEPER*      MOSUNNY   60  38  43 NW10G16   29.96S
ORANGE*          N/A     61  34  36 W10G18    29.97R
GORDONSVILLE*  CLEAR     60  37  41 NW10      29.95S
WARRENTON*     MOSUNNY   60  32  34 N15G21    29.95S

$$

VAZ055>057-182000-
NORTH AND CENTRAL PIEDMONT

CITY           SKY/WX    TMP DP  RH WIND       PRES   REMARKS
FREDERICKSBRG* MOSUNNY   62  40  44 NW12G18   29.93S
STAFFORD*      MOSUNNY   59  39  47 NW14G21   29.98R

$$

NCZ024-NYZ072-PAZ021-071-VAZ022-071-182000-
OTHER REGIONAL OBSERVATIONS

CITY           SKY/WX    TMP DP  RH WIND       PRES   REMARKS
NEW YORK CITY  CLOUDY    40  38  93 VRB5      29.97R
PHILADELPHIA   CLOUDY    48  41  76 N9        29.93S
PITTSBURGH     CLOUDY    40  35  83 W12       30.07S
ROANOKE        MOSUNNY   56  35  45 NW22G35   30.03F
RICHMOND       MOSUNNY   63  43  48 NW16G23   29.92S
RALEIGH        MOSUNNY   67  35  30 NW10G23   29.96S

$$

ANZ530>537-182000-
MARINE OBSERVATIONS

STATION/POSITION TIME  TEMP    WIND        PRES
                       AIR SEA DIR/SP/G
                 (UTC) (F)     (DEG/KT/KT) (MB)
THOMAS PT LIGHT  1900   54 39  310/ 16/ 19   N/A
BALT KEY BRIDGE  1848   51     300/ 14/ 17 1013.3S
COVE POINT       1848   45      30/  6/  8 1014.0R
LEWISETTA        1848   49 45  120/  4/  5 1013.0S
SOLOMONS ISLAND  1842      42  350/ 12/ 15   N/A
PINEY POINT      1848           90/  2/  3   N/A

$$





USA.gov is the U.S. government's official web portal to all federal, state and local government web resources and services.